• In India
  • List of Countries
  • For 7 days
  • Water Temperature
  • Satellite Maps
  • Weather Map
  • Weather Widgets
  • user-avatar
    Login

    Hourly Weather Kalgoorlie

    Today, 15 October, Monday

    Time Temperature Precipitation Wind Pressure Humidity
    00:00 +13°C° 0 mm 4 mps 729 mmHg 73%
    01:00 +13°C° 0 mm 3 mps 729 mmHg 76%
    02:00 +13°C° 0 mm 2 mps 729 mmHg 79%
    03:00 +13°C° 0 mm 2 mps 729 mmHg 80%
    04:00 +13°C° 0 mm 2 mps 730 mmHg 81%
    05:00 +12°C° 0 mm 2 mps 730 mmHg 83%
    06:00 +13°C° 0 mm 3 mps 731 mmHg 75%
    07:00 +14°C° 0 mm 3 mps 731 mmHg 68%
    08:00 +15°C° 0 mm 4 mps 732 mmHg 61%
    09:00 +18°C° 0 mm 3 mps 732 mmHg 55%
    10:00 +19°C° 0 mm 3 mps 732 mmHg 50%
    11:00 +20°C° 0 mm 3 mps 732 mmHg 44%
    12:00 +21°C° 0 mm 3 mps 732 mmHg 40%
    13:00 +22°C° 0 mm 3 mps 731 mmHg 36%
    14:00 +24°C° 0 mm 3 mps 731 mmHg 33%
    15:00 +24°C° 0 mm 3 mps 731 mmHg 32%
    16:00 +24°C° 0 mm 3 mps 732 mmHg 31%
    17:00 +24°C° 0 mm 3 mps 732 mmHg 31%
    18:00 +24°C° 0 mm 3 mps 732 mmHg 33%
    19:00 +23°C° 0 mm 2 mps 733 mmHg 36%
    20:00 +21°C° 0 mm 2 mps 733 mmHg 39%
    21:00 +20°C° 0 mm 2 mps 733 mmHg 41%
    22:00 +20°C° 0 mm 2 mps 733 mmHg 42%
    23:00 +19°C° 0 mm 2 mps 733 mmHg 43%

    Tomorrow, 16 October, Tuesday

    Time Temperature Precipitation Wind Pressure Humidity
    00:00 +18°C° 0 mm 3 mps 733 mmHg 48%
    01:00 +18°C° 0 mm 4 mps 733 mmHg 52%
    02:00 +17°C° 0 mm 4 mps 733 mmHg 56%
    03:00 +15°C° 0 mm 4 mps 733 mmHg 60%
    04:00 +15°C° 0 mm 4 mps 734 mmHg 65%
    05:00 +14°C° 0 mm 4 mps 734 mmHg 69%
    06:00 +15°C° 0 mm 5 mps 734 mmHg 64%
    07:00 +17°C° 0 mm 5 mps 734 mmHg 59%
    08:00 +19°C° 0 mm 5 mps 735 mmHg 53%
    09:00 +21°C° 0 mm 5 mps 734 mmHg 47%
    10:00 +22°C° 0 mm 4 mps 734 mmHg 40%
    11:00 +25°C° 0 mm 4 mps 734 mmHg 33%
    12:00 +26°C° 0 mm 4 mps 734 mmHg 30%
    13:00 +26°C° 0 mm 4 mps 733 mmHg 28%
    14:00 +27°C° 0 mm 4 mps 733 mmHg 25%
    15:00 +27°C° 0 mm 4 mps 732 mmHg 25%
    16:00 +27°C° 0 mm 4 mps 732 mmHg 24%
    17:00 +27°C° 0 mm 4 mps 732 mmHg 24%
    18:00 +26°C° 0 mm 4 mps 732 mmHg 27%
    19:00 +25°C° 0 mm 4 mps 732 mmHg 29%
    20:00 +23°C° 0 mm 4 mps 733 mmHg 32%
    21:00 +23°C° 0 mm 4 mps 733 mmHg 34%
    22:00 +22°C° 0 mm 5 mps 733 mmHg 35%
    23:00 +21°C° 0 mm 6 mps 733 mmHg 37%

    Day after tomorrow, 17 October, Wednesday

    Time Temperature Precipitation Wind Pressure Humidity
    00:00 +21°C° 0 mm 6 mps 732 mmHg 36%
    01:00 +20°C° 0 mm 6 mps 732 mmHg 35%
    02:00 +19°C° 0 mm 6 mps 731 mmHg 35%
    03:00 +19°C° 0 mm 6 mps 731 mmHg 36%
    04:00 +17°C° 0 mm 6 mps 731 mmHg 37%
    05:00 +17°C° 0 mm 6 mps 731 mmHg 38%
    06:00 +18°C° 0 mm 7 mps 731 mmHg 36%
    07:00 +21°C° 0 mm 7 mps 731 mmHg 34%
    08:00 +22°C° 0 mm 8 mps 731 mmHg 32%
    09:00 +24°C° 0 mm 8 mps 731 mmHg 29%
    10:00 +27°C° 0 mm 8 mps 731 mmHg 26%
    11:00 +29°C° 0 mm 8 mps 730 mmHg 23%
    12:00 +30°C° 0 mm 7 mps 729 mmHg 21%
    13:00 +32°C° 0 mm 7 mps 729 mmHg 20%
    14:00 +32°C° 0 mm 7 mps 728 mmHg 18%
    15:00 +32°C° 0 mm 7 mps 727 mmHg 18%
    16:00 +32°C° 0 mm 6 mps 727 mmHg 17%
    17:00 +32°C° 0 mm 6 mps 726 mmHg 17%
    18:00 +30°C° 0 mm 6 mps 726 mmHg 18%
    19:00 +28°C° 0 mm 6 mps 726 mmHg 20%
    20:00 +27°C° 0 mm 6 mps 725 mmHg 21%
    21:00 +27°C° 0 mm 7 mps 725 mmHg 21%
    22:00 +26°C° 0 mm 8 mps 724 mmHg 21%
    23:00 +26°C° 0 mm 9 mps 723 mmHg 21%

    18 October, Thursday

    Time Temperature Precipitation Wind Pressure Humidity
    00:00 +26°C° 0 mm 9 mps 723 mmHg 22%
    01:00 +24°C° 0 mm 8 mps 722 mmHg 23%
    02:00 +23°C° 0 mm 7 mps 722 mmHg 23%
    03:00 +22°C° 0 mm 6 mps 722 mmHg 26%
    04:00 +21°C° 0 mm 5 mps 722 mmHg 29%
    05:00 +20°C° 0 mm 4 mps 722 mmHg 32%
    06:00 +21°C° 0 mm 4 mps 722 mmHg 32%
    07:00 +22°C° 0 mm 5 mps 722 mmHg 31%
    08:00 +23°C° 0 mm 6 mps 723 mmHg 31%
    09:00 +26°C° 0 mm 7 mps 723 mmHg 29%
    10:00 +27°C° 0 mm 8 mps 723 mmHg 27%
    11:00 +28°C° 0 mm 9 mps 723 mmHg 25%
    12:00 +27°C° 0 mm 10 mps 722 mmHg 30%
    13:00 +26°C° 0 mm 12 mps 722 mmHg 36%
    14:00 +26°C° 0 mm 13 mps 722 mmHg 41%
    15:00 +23°C° 0 mm 13 mps 722 mmHg 41%
    16:00 +20°C° 0 mm 13 mps 723 mmHg 40%
    17:00 +19°C° 0 mm 13 mps 723 mmHg 39%
    18:00 +18°C° 0 mm 12 mps 724 mmHg 40%
    19:00 +17°C° 0 mm 12 mps 726 mmHg 40%
    20:00 +16°C° 0 mm 11 mps 727 mmHg 40%
    21:00 +14°C° 0 mm 10 mps 727 mmHg 44%
    22:00 +13°C° 0 mm 10 mps 727 mmHg 48%
    23:00 +12°C° 0 mm 9 mps 728 mmHg 52%

    19 October, Friday

    Time Temperature Precipitation Wind Pressure Humidity
    00:00 +11°C° 0 mm 9 mps 728 mmHg 54%
    01:00 +11°C° 0 mm 8 mps 728 mmHg 57%
    02:00 +10°C° 0 mm 8 mps 728 mmHg 60%
    03:00 +9°C° 0 mm 8 mps 729 mmHg 62%
    04:00 +9°C° 0 mm 7 mps 729 mmHg 65%
    05:00 +8°C° 0 mm 7 mps 730 mmHg 67%
    06:00 +9°C° 0 mm 7 mps 730 mmHg 61%
    07:00 +10°C° 0 mm 8 mps 731 mmHg 55%
    08:00 +11°C° 0 mm 8 mps 732 mmHg 49%
    09:00 +12°C° 0 mm 7 mps 732 mmHg 43%
    10:00 +15°C° 0 mm 6 mps 732 mmHg 37%
    11:00 +16°C° 0 mm 6 mps 732 mmHg 31%
    12:00 +19°C° 0 mm 5 mps 732 mmHg 29%
    13:00 +20°C° 0 mm 5 mps 731 mmHg 27%
    14:00 +21°C° 0 mm 5 mps 731 mmHg 25%
    15:00 +21°C° 0 mm 4 mps 731 mmHg 25%
    16:00 +21°C° 0 mm 4 mps 731 mmHg 25%
    17:00 +21°C° 0 mm 4 mps 731 mmHg 25%
    18:00 +20°C° 0 mm 3 mps 732 mmHg 27%
    19:00 +19°C° 0 mm 2 mps 733 mmHg 30%
    20:00 +19°C° 0 mm 2 mps 733 mmHg 32%
    21:00 +18°C° 0 mm 2 mps 733 mmHg 34%
    22:00 +17°C° 0 mm 2 mps 733 mmHg 36%
    23:00 +17°C° 0 mm 2 mps 733 mmHg 39%

    20 October, Saturday

    Time Temperature Precipitation Wind Pressure Humidity
    00:00 +16°C° 0 mm 2 mps 733 mmHg 41%
    01:00 +15°C° 0 mm 2 mps 732 mmHg 44%
    02:00 +15°C° 0 mm 2 mps 732 mmHg 46%
    03:00 +14°C° 0 mm 2 mps 732 mmHg 48%
    04:00 +14°C° 0 mm 2 mps 732 mmHg 50%
    05:00 +13°C° 0 mm 2 mps 732 mmHg 52%
    06:00 +15°C° 0 mm 1 mps 732 mmHg 46%
    07:00 +18°C° 0 mm 1 mps 733 mmHg 41%
    08:00 +19°C° 0 mm 1 mps 733 mmHg 36%
    09:00 +20°C° 0 mm 2 mps 732 mmHg 31%
    10:00 +22°C° 0 mm 3 mps 732 mmHg 27%
    11:00 +25°C° 0 mm 4 mps 732 mmHg 23%
    12:00 +26°C° 0 mm 5 mps 731 mmHg 21%
    13:00 +27°C° 0 mm 5 mps 730 mmHg 20%
    14:00 +28°C° 0 mm 5 mps 729 mmHg 18%
    15:00 +28°C° 0 mm 5 mps 729 mmHg 17%
    16:00 +28°C° 0 mm 5 mps 729 mmHg 17%
    17:00 +28°C° 0 mm 5 mps 729 mmHg 17%
    18:00 +27°C° 0 mm 4 mps 729 mmHg 19%
    19:00 +26°C° 0 mm 4 mps 729 mmHg 21%
    20:00 +25°C° 0 mm 3 mps 730 mmHg 23%
    21:00 +24°C° 0 mm 3 mps 729 mmHg 24%
    22:00 +22°C° 0 mm 3 mps 729 mmHg 26%
    23:00 +22°C° 0 mm 3 mps 729 mmHg 28%
    Show more